OBJECT V, 52751

Orbit data source: Space-Track

You're viewing an Uncataloged Satellite

Recently launched and/or uncataloged satellites may have evolving metadata. Metadata may include but not limited to: Owner, Maufacturer, Bus, Motor, and Mission.

OBJECT V, 52751 is a satellite in SSO that was launched on Wed, 25 May 2022 UTC via an FALCON 9 launch vehicle from the Air Force Eastern Test Range (AFETR). Unknown objects in Earth's orbit typically refer to objects detected orbiting the Earth but have not yet been identified or cataloged. These objects could be anything from previously untracked satellites, spent rocket stages, debris from satellite collisions, or even natural meteoroids temporarily captured by Earth's gravity.

Loading next visibility...
Identifier
52751, 2022-057V
Orbit
SSO
Country
Flag of TBDTBD
Related business
None
Manufacturer
Unknown
Mission
Non-operational Commercial Technology
Bus & Motor
Unknown
Mass
Unknown
Launch date (UTC)
2022-05-25 (4 years ago)
Launch vehicle
FALCON 9
Launch site
Air Force Eastern Test Range (AFETR)
Object type
Unknown
Shape & HBR
Box, 0.1 m
Radar Cross Section
0.015 m², Medium (>0.1 m² and < 1m²)

Expand to show TLE details & history
Last TLE update: 1 day ago

TLE from 1 day ago
0 OBJECT V
1 52751U 22057V   26172.50483082  .00007635  00000-0  20509-3 0  9994
2 52751  97.6631 320.9650 0007181  85.1531 275.0533 15.38204420226373
Epoch: 2026-06-21T12:06Z
TLE epoch observation values (Epoch: 2026-06-21T12:06:57.382Z)
Latitude
-0.00005°
Longitude
-130.47823°
Altitude
454.098 km
Speed
7.64 km/s
True Right ascension
21h 23m 51s
True Declination
0° 00' 00"
Sunlit
Object was in full shadow at epoch
Visualization orbit readout
Latitude
Unknown
Longitude
Unknown
Altitude
Unknown
Speed
Unknown
Apparent Right ascension
Unknown
Apparent Declination
Unknown
Sunlit
N/A
Visualization observer readout
Local Sidereal Time
00:56:28
Azimuth
Unknown
Elevation
Unknown
Doppler factor
Unknown
Orbital elements
Apogee altitude
453.274 km
Perigee altitude
443.47 km
Semi-major axis
6,826.509 km
Eccentricity
0.00072
Inclination
97.6631°
RAAN
320.965°
Arg. of periapsis
85.1531°
True anomaly
274.97133°
Mean anomaly
275.0533°
Eccentric anomaly
275.01231°
Mean motion
3.84809 °/min
Orbital period
93.55 mins
BSTAR
0.00020509
Loading maneuver chart data...
Computing Atmospheric mass density...

Documentation

Showing up to 5 results
|